NTW316 WSSS-VHHH

Flight info

Callsign NTW316
Flight time N/A
Altitude 36000
Route VMR9B VMR M771 DUDIS/K0833F390 M771 DOSUT/N0442F380 M771 DULOP/N0445F390 Q1 CARSO/N0445F380 V551 BETTY
Aircraft A20N/M-SDE2E3FGHIRWXY/LB1

Departure

Time 2026-05-04 10:12
Airport Singapore Changi Airport (WSSS)

Arrival

Time N/A
Airport Hong Kong International Airport (VHHH)
Time Latitude Longitude Altitude Speed Heading
2026-05-04 08:35 1.35677 103.99248 24 ft 0 kts 142°
2026-05-04 09:34 1.35680 103.99245 23 ft 3 kts 140°
2026-05-04 09:35 1.35696 103.99226 24 ft 4 kts 100°
2026-05-04 09:35 1.35694 103.99200 23 ft 4 kts 63°
2026-05-04 09:35 1.35678 103.99180 28 ft 3 kts 25°
2026-05-04 09:35 1.35676 103.99179 27 ft 0 kts 23°
2026-05-04 10:02 1.35681 103.99181 26 ft 3 kts 17°
2026-05-04 10:04 1.35723 103.99503 26 ft 15 kts 203°
2026-05-04 10:04 1.35622 103.99460 25 ft 17 kts 203°
2026-05-04 10:04 1.35506 103.99410 24 ft 19 kts 202°
2026-05-04 10:04 1.35376 103.99355 23 ft 21 kts 202°
2026-05-04 10:05 1.35238 103.99298 23 ft 19 kts 202°
2026-05-04 10:05 1.35110 103.99244 23 ft 21 kts 203°
2026-05-04 10:05 1.34973 103.99186 24 ft 22 kts 203°
2026-05-04 10:05 1.34828 103.99122 24 ft 23 kts 204°
2026-05-04 10:06 1.34673 103.99057 25 ft 25 kts 203°
2026-05-04 10:06 1.34509 103.98988 24 ft 26 kts 201°
2026-05-04 10:06 1.34343 103.98922 25 ft 20 kts 204°
2026-05-04 10:08 1.33369 103.98507 24 ft 30 kts 202°
2026-05-04 10:08 1.33170 103.98428 24 ft 31 kts 204°
2026-05-04 10:08 1.32994 103.98352 24 ft 12 kts 189°
2026-05-04 10:08 1.32960 103.98362 26 ft 0 kts 125°
2026-05-04 10:09 1.32959 103.98371 24 ft 4 kts 102°
2026-05-04 10:09 1.32955 103.98388 24 ft 0 kts 104°
2026-05-04 10:11 1.32928 103.98463 25 ft 1 kts 108°
2026-05-04 10:11 1.33025 103.98555 24 ft 41 kts 22°
2026-05-04 10:11 1.33531 103.98763 26 ft 117 kts 21°
2026-05-04 10:11 1.34475 103.99166 25 ft 176 kts 22°
2026-05-04 10:12 1.35697 103.99657 548 ft 190 kts 22°
2026-05-04 10:12 1.36902 104.00141 1576 ft 182 kts 22°
2026-05-04 10:12 1.38099 104.00633 2394 ft 194 kts 22°
2026-05-04 10:12 1.38950 104.00989 2813 ft 206 kts 22°
2026-05-04 10:13 1.40744 104.01756 3741 ft 213 kts 22°
2026-05-04 10:13 1.42113 104.02346 4457 ft 216 kts 22°
2026-05-04 10:13 1.43502 104.02947 5167 ft 219 kts 22°
2026-05-04 10:13 1.44905 104.03553 5886 ft 221 kts 22°
2026-05-04 10:14 1.46322 104.04165 6555 ft 223 kts 22°
2026-05-04 10:14 1.47759 104.04783 7192 ft 226 kts 21°
2026-05-04 10:16 1.57489 104.00970 11107 ft 242 kts 332°
2026-05-04 10:16 1.58979 104.00166 11649 ft 245 kts 333°
2026-05-04 10:16 1.60485 103.99354 12199 ft 247 kts 333°
2026-05-04 10:16 1.62007 103.98534 12739 ft 250 kts 333°
2026-05-04 10:17 1.63547 103.97703 13268 ft 253 kts 333°
2026-05-04 10:17 1.65104 103.96863 13780 ft 255 kts 333°
2026-05-04 10:19 1.76541 103.91177 16914 ft 268 kts 352°
2026-05-04 10:19 1.78399 103.91000 17342 ft 269 kts 359°
2026-05-04 10:19 1.80279 103.90897 17771 ft 271 kts 359°
2026-05-04 10:19 1.82168 103.90781 18169 ft 273 kts 358°
2026-05-04 10:20 1.84075 103.90659 18523 ft 275 kts 358°
2026-05-04 10:20 1.85989 103.90535 18899 ft 277 kts 358°
2026-05-04 10:20 1.87918 103.90411 19262 ft 278 kts 358°
2026-05-04 10:20 1.89855 103.90287 19615 ft 280 kts 358°
2026-05-04 10:21 1.91804 103.90163 19965 ft 281 kts 358°
2026-05-04 10:21 1.93763 103.90038 20310 ft 283 kts 358°
2026-05-04 10:21 1.95707 103.89914 20644 ft 285 kts 358°
2026-05-04 10:21 1.97687 103.89788 20979 ft 286 kts 358°
2026-05-04 10:22 2.01684 103.89534 21632 ft 289 kts 358°
2026-05-04 10:22 2.03701 103.89405 21946 ft 291 kts 358°
2026-05-04 10:22 2.05726 103.89276 22260 ft 292 kts 358°
2026-05-04 10:23 2.07763 103.89146 22575 ft 294 kts 358°
2026-05-04 10:23 2.09808 103.89016 22879 ft 295 kts 358°
2026-05-04 10:25 2.24398 103.88088 24630 ft 305 kts 358°
2026-05-04 10:25 2.26521 103.87953 24828 ft 307 kts 358°
2026-05-04 10:25 2.28680 103.87816 24885 ft 315 kts 358°
2026-05-04 10:25 2.30893 103.87675 24979 ft 321 kts 358°
2026-05-04 10:26 2.33128 103.87533 25141 ft 325 kts 358°
2026-05-04 10:26 2.35392 103.87388 25384 ft 326 kts 358°
2026-05-04 10:26 2.37655 103.87243 25664 ft 327 kts 358°
2026-05-04 10:26 2.39931 103.87099 25892 ft 329 kts 358°
2026-05-04 10:27 2.42224 103.86962 26125 ft 331 kts 358°
2026-05-04 10:27 2.44528 103.86825 26355 ft 333 kts 358°
2026-05-04 10:27 2.46849 103.86688 26575 ft 335 kts 358°
2026-05-04 10:27 2.49181 103.86549 26799 ft 337 kts 358°
2026-05-04 10:28 2.51528 103.86412 27024 ft 339 kts 358°
2026-05-04 10:28 2.53885 103.86274 27246 ft 340 kts 358°
2026-05-04 10:28 2.56258 103.86137 27455 ft 342 kts 358°
2026-05-04 10:28 2.58640 103.86000 27676 ft 344 kts 358°
2026-05-04 10:29 2.61032 103.85864 27886 ft 345 kts 358°
2026-05-04 10:29 2.63438 103.85726 28088 ft 347 kts 358°
2026-05-04 10:29 2.65853 103.85589 28296 ft 348 kts 358°
2026-05-04 10:29 2.68247 103.85454 28489 ft 350 kts 358°
2026-05-04 10:30 2.70683 103.85318 28687 ft 352 kts 358°
2026-05-04 10:30 2.73129 103.85183 28879 ft 353 kts 358°
2026-05-04 10:30 2.75584 103.85047 29067 ft 354 kts 358°
2026-05-04 10:30 2.78060 103.84911 29182 ft 358 kts 358°
2026-05-04 10:31 2.80564 103.84775 29231 ft 364 kts 358°
2026-05-04 10:32 2.98895 103.83807 30092 ft 383 kts 358°
2026-05-04 10:33 3.01553 103.83670 30257 ft 383 kts 358°
2026-05-04 10:33 3.04220 103.83533 30419 ft 384 kts 358°
2026-05-04 10:33 3.06894 103.83395 30587 ft 385 kts 358°
2026-05-04 10:33 3.09567 103.83258 30749 ft 386 kts 358°
2026-05-04 10:34 3.12251 103.83120 30901 ft 386 kts 358°
2026-05-04 10:34 3.14942 103.82981 31066 ft 387 kts 358°
2026-05-04 10:34 3.17634 103.82843 31216 ft 388 kts 358°
2026-05-04 10:34 3.20331 103.82705 31379 ft 389 kts 358°
2026-05-04 10:35 3.23006 103.82567 31523 ft 389 kts 358°
2026-05-04 10:35 3.25741 103.82427 31668 ft 390 kts 358°
2026-05-04 10:35 3.28457 103.82288 31812 ft 391 kts 358°
2026-05-04 10:35 3.31175 103.82147 31961 ft 392 kts 358°
2026-05-04 10:36 3.33898 103.82007 32089 ft 392 kts 358°
2026-05-04 10:36 3.36630 103.81868 32228 ft 393 kts 358°
2026-05-04 10:36 3.39359 103.81729 32371 ft 394 kts 358°
2026-05-04 10:36 3.42101 103.81589 32502 ft 394 kts 358°
2026-05-04 10:37 3.44841 103.81450 32640 ft 395 kts 358°
2026-05-04 10:37 3.47588 103.81312 32758 ft 396 kts 358°
2026-05-04 10:37 3.50343 103.81172 32890 ft 396 kts 358°
2026-05-04 10:37 3.53094 103.81033 33014 ft 397 kts 358°
2026-05-04 10:39 3.69685 103.80208 33685 ft 400 kts 358°
2026-05-04 10:39 3.72469 103.80070 33807 ft 400 kts 358°
2026-05-04 10:40 3.78026 103.79796 34113 ft 396 kts 358°
2026-05-04 10:40 3.80762 103.79663 34338 ft 393 kts 358°
2026-05-04 10:40 3.83492 103.79531 34438 ft 393 kts 358°
2026-05-04 10:41 3.88962 103.79272 34563 ft 394 kts 358°
2026-05-04 10:41 3.94451 103.79018 34714 ft 395 kts 358°
2026-05-04 10:42 3.99956 103.78766 34838 ft 396 kts 358°
2026-05-04 10:42 4.05472 103.78514 34987 ft 397 kts 358°
2026-05-04 10:43 4.11000 103.78266 35106 ft 398 kts 358°
2026-05-04 10:44 4.30456 103.77403 35534 ft 401 kts 358°
2026-05-04 10:45 4.33248 103.77281 35592 ft 402 kts 358°
2026-05-04 10:45 4.38841 103.77040 35696 ft 403 kts 358°
2026-05-04 10:46 4.44409 103.76801 35821 ft 403 kts 358°
2026-05-04 10:46 4.50080 103.76557 35838 ft 407 kts 358°
2026-05-04 10:47 4.55725 103.76315 35833 ft 411 kts 358°
2026-05-04 10:47 4.61459 103.76068 35836 ft 414 kts 358°
2026-05-04 10:49 4.84138 103.75100 35849 ft 411 kts 358°
2026-05-04 10:50 4.89877 103.74853 35841 ft 414 kts 358°
2026-05-04 10:51 5.05843 103.84123 35852 ft 412 kts 57°
2026-05-04 10:52 5.07398 103.86536 35853 ft 412 kts 57°
2026-05-04 10:52 5.10536 103.91340 35848 ft 412 kts 57°
2026-05-04 10:54 5.23172 104.10529 35853 ft 412 kts 57°
2026-05-04 10:56 5.35776 104.29681 35854 ft 412 kts 57°
2026-05-04 10:57 5.38933 104.34482 35857 ft 412 kts 57°
2026-05-04 10:57 5.42091 104.39284 35859 ft 412 kts 57°
2026-05-04 10:58 5.45248 104.44086 35855 ft 412 kts 57°
2026-05-04 10:58 5.48402 104.48886 35863 ft 412 kts 57°
2026-05-04 10:59 5.51555 104.53684 35862 ft 411 kts 57°
2026-05-04 10:59 5.54705 104.58479 35858 ft 412 kts 57°
2026-05-04 11:00 5.57854 104.63275 35862 ft 411 kts 57°
2026-05-04 11:02 5.70402 104.82393 35861 ft 409 kts 57°
2026-05-04 11:05 5.93362 105.17418 35863 ft 410 kts 57°
2026-05-04 11:06 5.96492 105.22198 35868 ft 410 kts 57°
2026-05-04 11:06 5.99622 105.26979 35864 ft 410 kts 57°
2026-05-04 11:10 6.21502 105.60439 35868 ft 409 kts 57°
2026-05-04 11:12 6.33951 105.79505 35868 ft 408 kts 58°
2026-05-04 11:12 6.37067 105.84280 35870 ft 408 kts 57°
2026-05-04 11:13 6.40179 105.89050 35872 ft 408 kts 58°
2026-05-04 11:13 6.43290 105.93819 35870 ft 408 kts 58°
2026-05-04 11:14 6.46399 105.98588 35873 ft 408 kts 58°
2026-05-04 11:16 6.58819 106.17646 35869 ft 407 kts 58°
2026-05-04 11:16 6.61920 106.22409 35870 ft 407 kts 58°
2026-05-04 11:17 6.65018 106.27167 35870 ft 406 kts 58°
2026-05-04 11:19 6.77390 106.46184 35869 ft 406 kts 58°
2026-05-04 11:19 6.80476 106.50930 35870 ft 405 kts 58°
2026-05-04 11:20 6.83561 106.55676 35871 ft 405 kts 58°
2026-05-04 11:20 6.86621 106.60386 35870 ft 405 kts 58°
2026-05-04 11:22 6.99051 106.79245 35870 ft 405 kts 50°
2026-05-04 11:23 7.03193 106.83087 35874 ft 407 kts 36°
2026-05-04 11:25 7.19821 106.94036 35870 ft 408 kts 35°
2026-05-04 11:25 7.24571 106.97163 35869 ft 408 kts 35°
2026-05-04 11:27 7.45932 107.11236 35858 ft 403 kts 35°
2026-05-04 11:28 7.50647 107.14346 35869 ft 407 kts 35°
2026-05-04 11:28 7.55353 107.17451 35866 ft 407 kts 35°
2026-05-04 11:29 7.60089 107.20575 35869 ft 408 kts 35°
2026-05-04 11:29 7.64897 107.23749 35868 ft 419 kts 35°
2026-05-04 11:31 7.82721 107.35519 35868 ft 456 kts 35°
2026-05-04 11:33 8.01850 107.48161 35870 ft 475 kts 34°
2026-05-04 11:33 8.07377 107.51816 35870 ft 475 kts 34°
2026-05-04 11:34 8.12904 107.55473 35873 ft 475 kts 34°
2026-05-04 11:34 8.18432 107.59133 35873 ft 475 kts 34°
2026-05-04 11:35 8.23957 107.62791 35871 ft 475 kts 34°
2026-05-04 11:35 8.29484 107.66452 35872 ft 475 kts 34°
2026-05-04 11:36 8.35012 107.70114 35874 ft 475 kts 34°
2026-05-04 11:36 8.40543 107.73780 35871 ft 475 kts 34°
2026-05-04 11:37 8.46071 107.77447 35874 ft 475 kts 34°
2026-05-04 11:37 8.51598 107.81112 35872 ft 475 kts 34°
2026-05-04 11:38 8.57124 107.84779 35875 ft 475 kts 34°
2026-05-04 11:38 8.62618 107.88426 35878 ft 475 kts 34°
2026-05-04 11:39 8.68143 107.92094 35875 ft 475 kts 34°
2026-05-04 11:41 8.87513 108.04967 35878 ft 476 kts 34°
2026-05-04 11:41 8.93051 108.08649 35877 ft 476 kts 34°
2026-05-04 11:42 8.98582 108.12331 35878 ft 476 kts 34°
2026-05-04 11:42 9.04114 108.16013 35877 ft 476 kts 34°
2026-05-04 11:43 9.09559 108.19638 35878 ft 476 kts 34°